Hauptseite
METAR-TAF:

METAR-TAF

Flughäfen :

Prague, Tschechien

Breite: 50-12-59N, Länge: 014-23-42E, Höhe: 280 m

Beobachtung

Neuester Wetterbericht von vor 53 Minuten, um 14:00 UTC
Wind 8 kt aus West
Temperatur 0°C
Luftfeuchtigkeit 86%
Luftdruck 1023 hPa
Sichtweite: 9000 m
Geschlossene Wolkendecke in der Höhe von 1100 ft

METAR: LKVO 241400Z 26008KT 9000 OVC011 M00/M02 Q1023

Zeit: 15:53 (14:53 UTC)


TAF: fehlend

Wetterbeobachtungen und Prognosen von mehr als 4000 Flughäfen (METAR und TAF Bericht).

Die verfügbaren Stationen werden durch gelbe und rote Markierungen auf der Karte dargestellt.

Führen Sie die Maus auf sie, um den Namen der Station zu sehen.

Darauf klicken, um die Beobachtung von Wetterbeobachtungen und Prognosen zu sehen.

Um die Karte zu ändern : klicken Sie auf den grünen Tasten mit einem schwarzen Kreuz Zum Vergrößern, auf den grünen Button mit einem Gedankenstrich zu verkleinern, oder auf die grünen Pfeile für benachbarte Karten.


METAR-TAF: